{"data":{"norad_id":66212,"intl_designator":"2025-244G","name":"STARLINK-35710","alt_names":[],"object_type":"PAYLOAD","status":"ACTIVE","operator":null,"country":"US","launch_date":"2025-10-28","launch_site_code":"AFWTR","launch_vehicle":null,"mission":null,"orbit_class":"UNKNOWN","rcs_meters":null,"size_class":null,"mass_kg":null,"dimensions":null,"purposes":["comms"],"wikipedia_slug":null,"has_3d_model":false,"image_url":null,"decayed_at":null,"tle_current":{"epoch":"2026-05-25T05:24:32.495040Z","epoch_age_seconds":56366,"freshness":"FRESH","line1":"1 66212U 25244G   26145.22537610  .00013788  00000+0  47665-3 0  9995","line2":"2 66212  53.1582 234.6839 0001346  77.9982 282.1170 15.30209775 33370","mean_motion":15.30209775,"eccentricity":0.0001346,"inclination_deg":53.1582,"raan_deg":234.6839,"arg_perigee_deg":77.9982,"mean_anomaly_deg":282.117,"bstar":0.00047665,"rev_number":3337,"period_min":94.104744560268,"perigee_km":474.26342592657,"apogee_km":476.10834044673,"semimajor_km":6853.3228831866,"source":"CELESTRAK","updated_at":"2026-05-25T13:38:21.127542Z"}}}